sat.trackr.live / text

‹ back to catalog

STARLINK-3593

NORAD 51896 · 2022-022AW

PAYLOAD ACTIVE UNKNOWN

§ Identity

Operator
Country
US
Launch date
2022-03-03
Launch site
AFETR
Launch vehicle
Mass (kg)
RCS (m²)

Purposes: comms

External: N2YO · Heavens-Above · Gunter

§ Orbital elements

Epoch: 2026-09-20T02:06:49.437216Z

Period
93.90 min
Inclination
53.1600°
Eccentricity
0.0001202
Mean motion
15.33552741 rev/d
Perigee alt
464.4 km
Apogee alt
466.0 km
Semi-major
6,843.4 km
B*
2.8401e-5
RAAN
191.8051°
Arg perigee
84.2216°
Mean anomaly
275.8923°
Rev number
25,284

§ Raw data

STARLINK-35931 51896U 22022AW  26263.08807219  .00000562  00000+0  28401-4 0  99922 51896  53.1600 191.8051 0001202  84.2216 275.8923 15.33552741252842

JSON: /api/v1/satellites/51896 · /tle

For live sub-satellite position, see the globe view (requires WebGL).

§ Visibility from observer

Set your observer location to see the next 7 days of passes ≥ 10°. The values pass through the URL so the page stays shareable.

No JS? Fill the form by hand. The geolocation button needs JavaScript.